{"data":{"norad_id":60604,"intl_designator":"2024-150X","name":"STARLINK-32039","alt_names":[],"object_type":"PAYLOAD","status":"ACTIVE","operator":null,"country":"US","launch_date":"2024-08-20","launch_site_code":"AFETR","launch_vehicle":null,"mission":null,"orbit_class":"UNKNOWN","rcs_meters":null,"size_class":null,"mass_kg":null,"dimensions":null,"purposes":["comms"],"wikipedia_slug":null,"has_3d_model":false,"image_url":null,"decayed_at":null,"tle_current":{"epoch":"2026-05-25T04:18:58.589856Z","epoch_age_seconds":56014,"freshness":"FRESH","line1":"1 60604U 24150X   26145.17984479 -.00002468  00000+0 -71275-4 0  9992","line2":"2 60604  53.1619 314.4828 0001241  99.6204 260.4936 15.30179897 99717","mean_motion":15.30179897,"eccentricity":0.0001241,"inclination_deg":53.1619,"raan_deg":314.4828,"arg_perigee_deg":99.6204,"mean_anomaly_deg":260.4936,"bstar":-7.1275e-5,"rev_number":9971,"period_min":94.106582031511,"perigee_km":474.42458557001,"apogee_km":476.12560245175,"semimajor_km":6853.4120940109,"source":"CELESTRAK","updated_at":"2026-05-25T13:38:19.283017Z"}}}